Location: Newark
(42.9858°N, 0.6717°E)
Time: 00:49:08
(UTC+00:00)

Tiros 1 despin weight - All Passes

Search period start: 12 November 2019 00:00
Search period end: 22 November 2019 00:00
Orbit: 594 x 642 km, 48.2° (Epoch: 11 November)

Date Brightness Start Highest point End Pass type
(mag) Time Alt. Az. Time Alt. Az. Time Alt. Az.
12 Nov - 14:03:51 10° SSE 14:05:36 12° SE 14:07:21 10° ESE daylight
12 Nov - 15:42:04 10° SW 15:46:25 59° SSE 15:50:51 10° ENE daylight
12 Nov - 17:23:43 10° W 17:28:05 51° NNW 17:32:31 10° ENE visible
12 Nov - 19:05:51 10° WNW 19:10:12 45° N 19:14:36 10° E visible
12 Nov - 20:47:29 10° WNW 20:52:04 86° SSW 20:56:42 10° ESE visible
12 Nov - 22:29:43 10° W 22:33:12 21° SW 22:36:43 10° S night (unlit)
13 Nov - 14:18:18 10° S 14:21:48 23° SE 14:25:20 10° E daylight
13 Nov - 15:58:30 10° WSW 16:02:58 86° NNW 16:07:29 10° ENE daylight
13 Nov - 17:40:34 10° WNW 17:44:52 43° N 17:49:13 10° ENE visible
13 Nov - 19:22:30 10° WNW 19:26:58 54° NNE 19:31:28 10° E visible
13 Nov - 21:04:08 10° WNW 21:08:35 53° SSW 21:13:04 10° SE visible
13 Nov - 22:48:08 10° WSW 22:49:24 11° SW 22:50:40 10° SSW night (unlit)
14 Nov - 14:33:58 10° SW 14:38:07 42° SE 14:42:21 10° ENE daylight
14 Nov - 16:15:13 10° W 16:19:37 59° NNW 16:24:05 10° ENE daylight
14 Nov - 17:57:23 10° WNW 18:01:40 42° N 18:06:01 10° ENE visible
14 Nov - 19:39:07 10° WNW 19:43:39 75° NNE 19:48:15 10° ESE visible
14 Nov - 21:20:59 10° W 21:24:58 30° SW 21:29:00 10° SSE night (unlit)
15 Nov - 13:10:54 10° S 13:13:37 16° SE 13:16:22 10° E daylight
15 Nov - 14:50:11 10° SW 14:54:36 73° SSE 14:59:04 10° ENE daylight
15 Nov - 16:32:03 10° W 16:36:21 47° N 16:40:44 10° ENE daylight
15 Nov - 18:14:06 10° WNW 18:18:28 47° N 18:22:53 10° E visible
15 Nov - 19:55:43 10° WNW 20:00:14 71° SSW 20:04:49 10° SE visible
15 Nov - 21:38:23 10° W 21:41:14 16° SW 21:44:06 10° S night (unlit)
16 Nov - 13:26:02 10° SSW 13:29:52 30° SE 13:33:46 10° E daylight
16 Nov - 15:06:45 10° WSW 15:11:11 73° NNW 15:15:40 10° ENE daylight
16 Nov - 16:48:54 10° WNW 16:53:09 42° N 16:57:28 10° ENE daylight
16 Nov - 18:30:44 10° WNW 18:35:12 61° NNE 18:39:44 10° E visible
16 Nov - 20:12:25 10° WNW 20:16:42 41° SW 20:21:01 10° SE visible
17 Nov - 12:04:30 10° SE 12:05:29 11° SE 12:06:28 10° ESE daylight
17 Nov - 13:41:58 10° SW 13:46:16 54° SSE 13:50:37 10° ENE daylight
17 Nov - 15:23:32 10° W 15:27:52 53° NNW 15:32:17 10° ENE daylight
17 Nov - 17:05:41 10° WNW 17:09:57 44° N 17:14:18 10° E visible
17 Nov - 18:47:19 10° WNW 18:51:51 88° NNE 18:56:26 10° ESE visible
17 Nov - 20:29:26 10° W 20:33:02 23° SW 20:36:39 10° S visible
18 Nov - 12:18:21 10° S 12:21:40 21° SE 12:25:01 10° E daylight
18 Nov - 13:58:21 10° WSW 14:02:47 89° SSE 14:07:15 10° ENE daylight
18 Nov - 15:40:23 10° W 15:44:38 44° N 15:48:57 10° ENE daylight
18 Nov - 17:22:21 10° WNW 17:26:44 52° NNE 17:31:10 10° E visible
18 Nov - 19:03:57 10° WNW 19:08:23 57° SSW 19:12:52 10° SE visible
18 Nov - 20:47:27 10° WSW 20:49:14 12° SW 20:51:02 10° SSW visible
19 Nov - 12:33:54 10° SSW 12:37:59 38° SE 12:42:05 10° ENE daylight
19 Nov - 14:15:02 10° W 14:19:25 62° NNW 14:23:51 10° ENE daylight
19 Nov - 15:57:12 10° WNW 16:01:26 42° N 16:05:43 10° ENE daylight
19 Nov - 17:38:57 10° WNW 17:43:26 71° NNE 17:47:58 10° ESE visible
19 Nov - 19:20:46 10° WNW 19:24:47 32° SW 19:28:52 10° SSE visible
20 Nov - 11:11:05 10° SSE 11:13:30 15° SE 11:15:55 10° E daylight
20 Nov - 12:50:03 10° SW 12:54:25 68° SSE 12:58:50 10° ENE daylight
20 Nov - 14:31:51 10° W 14:36:08 48° N 14:40:29 10° ENE daylight
20 Nov - 16:13:56 10° WNW 16:18:14 46° N 16:22:35 10° E daylight
20 Nov - 17:55:33 10° WNW 18:00:01 77° SSW 18:04:34 10° ESE visible
20 Nov - 19:38:02 10° W 19:41:04 18° SW 19:44:08 10° S visible
21 Nov - 11:26:01 10° SSW 11:29:44 27° SE 11:33:29 10° E daylight
21 Nov - 13:06:35 10° WSW 13:10:59 77° NNW 13:15:26 10° ENE daylight
21 Nov - 14:48:42 10° WNW 14:52:56 42° N 14:57:11 10° ENE daylight
21 Nov - 16:30:35 10° WNW 16:34:58 58° NNE 16:39:26 10° E daylight
21 Nov - 18:12:13 10° WNW 18:16:30 45° SW 18:20:50 10° SE visible
